Weather History for Gillette, WY

Change the Weather History Date:

Sunday, February 3, 2013

  Actual Average Record
Temperature  
Mean Temperature 34 °F 26 °F  
Max Temperature 45 °F 37 °F 19 °F (2014)
Min Temperature 22 °F 15 °F 7 °F (2014)
Degree Days  
Heating Degree Days 31 39  
Month to date heating degree days 99 117  
Since 1 July heating degree days 4185 4472  
Cooling Degree Days 0 0  
Month to date cooling degree days 0 0  
Year to date cooling degree days 0 0  
Moisture  
Dew Point 20 °F    
Average Humidity 60    
Maximum Humidity 74    
Minimum Humidity 45    
Precipitation  
Precipitation 0.00 in 0.01 in - ()
Month to date precipitation 0.04 0.04  
Year to date precipitation 0.45 0.43  
Sea Level Pressure  
Sea Level Pressure 30.02 in    
Wind  
Wind Speed 12 mph (WSW)    
Max Wind Speed 21 mph    
Max Gust Speed 25 mph    
Visibility 10 miles    
Events      
T = Trace of Precipitation, MM = Missing Value Source: NWS Daily Summary

Daily Weather History Graph

Daily Weather History Graph

Search for Another Location

Airport:

Trip Planner

Search our weather history database for the weather conditions in past years. The results will help you decide how hot, cold, wet, or windy it might be!

Date:

Astronomy

Feb. 03, 2013 Rise Set
Actual Time 7:17 AM MST 5:15 PM MST
Civil Twilight 6:46 AM MST 5:45 PM MST
Nautical Twilight 6:12 AM MST 6:20 PM MST
Astronomical Twilight 5:38 AM MST 6:54 PM MST
Moon 12:49 AM MST (2/3) 10:52 AM MST (2/3)
Length of Visible Light 10h 58m
Length of Day
9h 57m
Waning Gibbous, 48% of the Moon is Illuminated
Feb 3
Waning Gibbous
Feb 10
New
Feb 17
First Quarter
Feb 25
Full
Mar 4
Last Quarter

Hourly Weather History & Observations

Time (MST) Temp. Windchill Dew Point Humidity Pressure Visibility Wind Dir Wind Speed Gust Speed Precip Events Conditions
12:53 AM 28.0 °F 17.5 °F 18.0 °F 66% 30.21 in 10.0 mi WSW 12.7 mph - N/A   Clear
1:53 AM 28.9 °F 18.6 °F 18.0 °F 64% 30.17 in 10.0 mi SSW 12.7 mph - N/A   Clear
2:53 AM 28.0 °F 17.0 °F 18.0 °F 66% 30.15 in 10.0 mi SW 13.8 mph - N/A   Clear
3:53 AM 27.0 °F 16.1 °F 18.0 °F 69% 30.13 in 10.0 mi SW 12.7 mph - N/A   Clear
4:53 AM 27.0 °F 16.7 °F 18.0 °F 69% 30.13 in 10.0 mi SW 11.5 mph - N/A   Clear
5:53 AM 28.0 °F 17.5 °F 18.0 °F 66% 30.12 in 10.0 mi SW 12.7 mph - N/A   Clear
6:53 AM 28.9 °F 17.3 °F 18.0 °F 64% 30.07 in 10.0 mi SSW 16.1 mph - N/A   Clear
7:53 AM 32.0 °F 20.5 °F 18.0 °F 56% 30.03 in 10.0 mi SSW 18.4 mph - N/A   Clear
8:53 AM 34.0 °F 23.4 °F 19.0 °F 54% 30.01 in 10.0 mi SW 17.3 mph - N/A   Clear
9:53 AM 35.1 °F 24.8 °F 21.0 °F 57% 29.97 in 10.0 mi SW 17.3 mph - N/A   Clear
10:53 AM 39.0 °F 30.3 °F 23.0 °F 53% 29.95 in 10.0 mi SW 16.1 mph - N/A   Clear
11:53 AM 39.0 °F 30.3 °F 24.1 °F 55% 29.94 in 10.0 mi SW 16.1 mph - N/A   Clear
12:53 PM 39.9 °F 32.5 °F 25.0 °F 55% 29.93 in 10.0 mi SW 12.7 mph - N/A   Clear
1:53 PM 42.1 °F 36.6 °F 23.0 °F 47% 29.90 in 10.0 mi West 9.2 mph - N/A   Clear
2:53 PM 42.1 °F 37.1 °F 23.0 °F 47% 29.92 in 10.0 mi NW 8.1 mph - N/A   Clear
3:53 PM 41.0 °F 34.7 °F 24.1 °F 51% 29.93 in 10.0 mi NNW 10.4 mph - N/A   Clear
4:53 PM 37.9 °F 30.5 °F 24.1 °F 57% 29.94 in 10.0 mi NW 11.5 mph - N/A   Clear
5:53 PM 33.1 °F 25.5 °F 21.9 °F 64% 29.98 in 10.0 mi NW 9.2 mph - N/A   Clear
6:53 PM 30.9 °F 22.8 °F 21.0 °F 67% 29.99 in 10.0 mi NW 9.2 mph - N/A   Clear
7:53 PM 28.9 °F 21.1 °F 19.9 °F 69% 29.99 in 10.0 mi WNW 8.1 mph - N/A   Clear
8:53 PM 30.0 °F 21.1 °F 19.9 °F 66% 29.99 in 10.0 mi WNW 10.4 mph - N/A   Clear
9:53 PM 28.0 °F 19.3 °F 19.0 °F 69% 29.99 in 10.0 mi West 9.2 mph - N/A   Clear
10:53 PM 24.1 °F 16.0 °F 18.0 °F 77% 29.99 in 10.0 mi West 6.9 mph - N/A   Clear
11:53 PM 21.9 °F 15.7 °F 16.0 °F 78% 29.99 in 10.0 mi SW 4.6 mph - N/A   Clear